Simultaneous Nadir Overpasses (SNOs) Predictions

Prediction of SNOs between LANDSAT-8 and METOP-A Satellite Orbit:

Table of predicted SNOs for the next 14.0 days since TLE Epoch: 4/27/2017
Index Date (LANDSAT-8) Time (LANDSAT-8) Lat,Lon (LANDSAT-8) SZA (LANDSAT-8 ) Date (METOP-A) Time (METOP-A) Lat,Lon (METOP-A) SZA (METOP-A ) Distance(km) Time Diff (sec)
1 04/28/2017 05:14:42 -81.19, -37.69 110.75 04/28/2017 05:13:54 -81.19, -37.70 110.77 0.15 48
2 04/28/2017 06:04:07 81.21, 130.39 69.31 04/28/2017 06:04:32 81.21, 130.55 69.34 2.64 25
3 05/01/2017 00:48:56 -81.18, 28.70 111.61 05/01/2017 00:48:16 -81.18, 28.56 111.65 2.38 40
4 05/01/2017 01:38:21 81.21,-163.25 68.44 05/01/2017 01:38:54 81.21,-163.21 68.46 0.75 33
5 05/03/2017 20:23:09 -81.20, 95.42 112.39 05/03/2017 20:22:36 -81.20, 95.55 112.39 2.30 33
6 05/03/2017 21:12:35 81.20, -96.94 67.60 05/03/2017 21:13:16 81.20, -96.99 67.62 0.94 41
7 05/06/2017 15:57:22 -81.19, 161.73 113.20 05/06/2017 15:56:57 -81.19, 161.76 113.21 0.63 25
8 05/06/2017 16:46:47 81.21, -30.29 66.85 05/06/2017 16:47:36 81.21, -30.40 66.85 2.07 49
9 05/09/2017 11:31:35 -81.20,-131.63 113.93 05/09/2017 11:31:18 -81.20,-131.67 113.94 0.84 17




NCC Satellite Simultaneous Nadir Overpasses (SNOs) Prediction Service
